Location: Dal�� Lhota
(48.7500°N, 14.0167°E)
Time: 22:56:13
(UTC+00:00)

Cosmos 2278 Rocket - Pass Details

Date: 24 September 2020
Orbit: 841 x 845 km, 71.0° (Epoch: 25 October)

Event Time Altitude Azimuth Distance (km) Brightness Sun altitude
Exits shadow 21:32:49 12° 275° (W) 2,325 4.7 -39.0°
Maximum altitude 21:36:29 21° 320° (NW) 1,814 4.4 -39.2°
Drops below altitude 10° 21:40:43 10° 8° (N) 2,472 5.1 -39.5°
Sets 21:43:49 0° 24° (NNE) 3,410 5.8 -39.7°
